Location: D�rnast
(49.6426°N, 11.9755°E)
Time: 02:24:43
(UTC+00:00)

Cosmos 1844 - Pass Details

Date: 24 January 2021
Orbit: 821 x 869 km, 70.9° (Epoch: 24 February)

Event Time Altitude Azimuth Distance (km) Brightness Sun altitude
Rises 16:50:58 0° 189° (S) 3,378 7.2 -9.2°
Reaches altitude 10° 16:53:26 10° 184° (S) 2,455 6.4 -9.6°
Maximum altitude 16:58:51 49° 110° (ESE) 1,085 4.0 -10.4°
Drops below altitude 10° 17:04:21 10° 37° (NE) 2,502 5.7 -11.3°
Enters shadow 17:04:58 - 36° (NE) 2,725 5.9 -11.4°
